RADUGA-1M 3 (39375 NORAD) Tracking and Keplerian Element Data

This shows tracking and keplerian element data for the satellite.

Feedback or suggestion? Click here.




ElementValue
Catalog39375
NameRADUGA-1M 3
Epoch Orbit1834
Epoch Day318.71080788
Epoch Year2018
RAAN222.8405
Inclination0.0096
Eccentricity0.0002314
Argument of Perigee24.8194
Mean Anonmoly132.0294
Mean Motion1.00273014
Decay Rate-3.8E-07
L11 39375U 13062A 18318.71080788 -.00000038 00000-0 00000+0 0 9990
L22 39375 0.0096 222.8405 0002314 24.8194 132.0294 1.00273014 18340

Live tracking and technical data element details for RADUGA-1M 3 (NORAD 39375). RADUGA-1M 3 can be tracked NOW for your location showing map with azimuth and elevation plus other details from your city location.

Track the satellite on the map from your city or location and see movement details for azimuth, elevation, latitude, longitude, range, height, and movement on the map or in text.







IsCatalogInMostPopularTable: catalog: 39375, numindb: 86
Update: records affected: 1



GetName: 39375 RADUGA-1M 3

Hit Count: updated at: Fri, 16 Nov 2018 05:46:55 GMT